This demonstration page uses our WeatherBlox Daily Observations layout. Learn more.

Left ArrowRight Arrow

39.08367, -84.50855

Hourly Observations for September 19, 2015

Temp ( °F °C ) Dew Point ( °F °C ) Humidity (%) Winds ( mph kmh ) Pressure ( in mb ) Visibility ( mi km ) Precip ( " mm )
12:53 am 00:53 Clear 67 19.4 66 18.9 97 97 undefined N/A 29.90 1013 10 16 0.00 0.00
1:53 am 01:53 Clear 65 18.3 64 17.8 97 97 undefined N/A 29.90 1012 10 16 0.00 0.00
2:53 am 02:53 Clear 65 18.3 64 17.8 97 97 undefined N/A 29.88 1012 9 14 0.00 0.00
3:53 am 03:53 Clear 64 17.8 64 17.8 100 100 undefined N/A 29.86 1011 9 14 0.00 0.00
4:53 am 04:53 Clear 65 18.3 63 17.2 93 93 undefined N/A 29.86 1011 10 16 0.00 0.00
5:53 am 05:53 Clear 64 17.8 63 17.2 96 96 undefined N/A 29.85 1011 10 16 0.00 0.00
6:53 am 06:53 Clear 62 16.7 61 16.1 96 96 undefined N/A 29.86 1011 10 16 0.00 0.00
7:53 am 07:53 Sunny 64 17.8 63 17.2 96 96 VRB 3 6 29.87 1012 10 16 0.00 0.00
8:53 am 08:53 Sunny 69 20.6 64 17.8 84 84 SSW 7 11 29.88 1012 10 16 0.00 0.00
9:53 am 09:53 Sunny 76 24.4 65 18.3 69 69 SW 12 19 29.87 1012 10 16 0.00 0.00
10:53 am 10:53 Mostly Sunny 75 23.9 65 18.3 71 71 SW 8 13 29.88 1012 10 16 0.00 0.00
11:53 am 11:53 Mostly Sunny 76 24.4 66 18.9 72 72 WSW 15 24 29.88 1012 10 16 0.00 0.00
12:20 pm 12:20 Mostly Cloudy 77 25 66 19 69 69 W 16 26 29.91 1013 10 16 0.00 0.00
12:53 pm 12:53 Cloudy 76 24.4 67 19.4 74 74 WSW 10 17 29.89 1012 10 16 0.00 0.00
1:03 pm 13:03 Cloudy 75 24 66 19 74 74 WSW 12 19 29.91 1013 10 16 0.00 0.00
1:53 pm 13:53 undefined N/A N/A N/A undefined N/A N/A N/A 0.00 0.00
3:53 pm 15:53 undefined 69 20.6 65 18.3 87 87 WNW 9 15 29.91 1013 N/A 0.00 0.00
4:53 pm 16:53 Cloudy 70 21.1 62 16.7 76 76 VRB 3 6 29.94 1014 10 16 0.00 0.00
5:53 pm 17:53 Mostly Sunny 73 22.8 61 16.1 66 66 WNW 9 15 29.91 1013 10 16 0.00 0.00
6:53 pm 18:53 Partly Cloudy 72 22.2 58 14.4 61 61 NNW 10 17 29.94 1014 10 16 0.00 0.00
7:53 pm 19:53 Partly Cloudy 68 20 55 12.8 63 63 NNW 7 11 29.94 1014 10 16 0.00 0.00
8:53 pm 20:53 Clear 65 18.3 55 12.8 70 70 N 5 7 29.97 1015 10 16 0.00 0.00
9:53 pm 21:53 Clear 64 17.8 54 12.2 70 70 N 10 17 30.00 1016 10 16 0.00 0.00
10:53 pm 22:53 Clear 64 17.8 53 11.7 68 68 N 12 19 30.03 1017 10 16 0.00 0.00
11:53 pm 23:53 Clear 61 16.1 52 11.1 72 72 Calm 30.03 1017 10 16 0.00 0.00

Powered by AerisWeather